Skip Page Navigation
NASA JPL Caltech
NASA Logo - Jet Propulsion Laboratory + View the NASA Portal
+ Near-Earth Object (NEO) Program
Search JPL
JPL Home Earth Solar System Stars & Galaxies Technology
JPL Solar System Dynamics
BODIES ORBITS EPHEMERIDES TOOLS PHYSICAL DATA DISCOVERY FAQ SITE MAP
JPL Small-Body Database Browser
Search: [ help ]  
2201 Oljato (1947 XC)
Classification: Apollo [NEO, PHA]          SPK-ID: 2002201
Ephemeris | Orbit Diagram | Orbital Elements | Physical Parameters | Discovery Circumstances | Close-Approach Data ]

[ hide orbit diagram ]
Orbit Diagram
Note: Make sure you have Java enabled on your browser to see the applet. This applet is provided as a 3D orbit visualization tool. The applet was implemented using 2-body methods, and hence should not be used for determining accurate long-term trajectories (over several years or decades) or planetary encounter circumstances. For accurate long-term ephemerides, please instead use our Horizons system.
Orbit Viewer

Additional Notes: the orbits shown in the applet are color coded. The planets are white lines, and the asteroid/comet is a blue line. The bright white line indicates the portion of the orbit that is above the ecliptic plane, and the darker portion is below the ecliptic plane. Likewise for the asteroid/comet orbit, the light blue indicates the portion above the ecliptic plane, and the dark blue the portion below the ecliptic plane.

Orbit Viewer applet originally written and kindly provided by Osamu Ajiki (AstroArts), and further modified by Ron Baalke (JPL).


Orbital Elements at Epoch 2456400.5 (2013-Apr-18.0) TDB
Reference: JPL 126 (heliocentric ecliptic J2000)
 Element Value Uncertainty (1-sigma)   Units 
e .7124473619695174 3.8311e-08  
a 2.172235653489352 3.2832e-09 AU
q .6246320925847325 8.3297e-08 AU
i 2.523417917215177 9.6248e-06 deg
node 75.01106444107486 0.00013627 deg
peri 98.19396594341785 0.00013626 deg
M 123.5889154396205 1.7737e-06 deg
tp 2455999.045940735997
(2012-Mar-12.54594074)
6.0708e-06 JED
period 1169.388539586694
3.20
2.6512e-06
7.259e-09
d
yr
n .3078531966178133 6.9796e-10 deg/d
Q 3.719839214393972 5.6224e-09 AU
  Orbit Determination Parameters
   # obs. used (total)      577  
   # delay obs. used      0  
   # Doppler obs. used      5  
   data-arc span      29472 days (80.69 yr)  
   first obs. used      1931-12-03  
   last obs. used      2012-08-11  
   planetary ephem.      DE405  
   SB-pert. ephem.      SB405-CPV-2  
   condition code      0  
   fit RMS      .5009  
   data source      ORB  
   producer      Otto Matic  
   solution date      2013-Apr-29 15:37:31  

Additional Information
 Earth MOID = .00303914 AU 
 T_jup = 3.301 
[ show covariance matrix ]

Ephemeris | Orbit Diagram | Orbital Elements | Physical Parameters | Discovery Circumstances | Close-Approach Data ]

Physical Parameter Table
Parameter Symbol Value Units Sigma Reference Notes
absolute magnitude H 15.25 mag n/a IRAS-A-FPA-3-RDR-IMPS-V6.0 IRAS observations used: 11
diameter diameter 1.80 km 0.1 IRAS-A-FPA-3-RDR-IMPS-V6.0 IRAS observations used: 11
rotation period rot_per 26. h n/a Asteroid Lightcurve DataBase (Rev. 2013-May-01) lower-limit; Result based on less than full coverage, so that the period may be wrong by 30 percent or so.
Published Reference List:
[Pravec, P.; Wolf, M.; Sarounova, L. (1995) http://www.asu.cas.cz/~ppravec/neo.htm]
geometric albedo albedo 0.4328   0.030 IRAS-A-FPA-3-RDR-IMPS-V6.0 IRAS observations used: 11
SMASSII spectral type spec_B Sq   n/a EAR-A-5-DDR-TAXONOMY-V4.0 based on a high-resolution spectrum by Xu et al. (1995) or Bus and Binzel (2002)

2201 Oljato (1947 XC)          Discovered 1947-Dec-12 by Giclas, H. L. at Flagstaff (LO)
Reference: DISCOVERY.DBLast Updated: 2003-08-29

[ show close-approach data ]
Alternate Designations
 1947 XC = 1979 VU2 = 1979 XA 
Ephemeris | Orbit Diagram | Orbital Elements | Physical Parameters | Discovery Circumstances | Close-Approach Data ]
ABOUT SSD CREDITS/AWARDS PRIVACY/COPYRIGHT GLOSSARY LINKS
FirstGov 2013-May-22 21:11 UT
(server date/time)  
NASA Home Page
Site Manager:   Donald K. Yeomans
Webmaster  Alan B. Chamberlin